TimeEST,TemperatureF,Dew PointF,Humidity,Sea Level PressureIn,VisibilityMPH,Wind Direction,Wind SpeedMPH,Gust SpeedMPH,PrecipitationIn,Events,Conditions,WindDirDegrees,DateUTC
12:51 AM,37.4,28.4,70,30.14,10.0,WNW,10.4,19.6,N/A,,Overcast,300,2011-12-26 05:51:00
1:51 AM,36.0,28.0,73,30.20,10.0,WNW,9.2,-,0.00,Snow,Light Snow,290,2011-12-26 06:51:00
2:06 AM,35.6,28.4,75,30.20,6.0,WNW,11.5,-,0.00,Snow,Light Ice Pellets,300,2011-12-26 07:06:00
2:09 AM,35.6,30.2,81,30.19,10.0,WNW,10.4,-,0.00,Snow,Light Snow,290,2011-12-26 07:09:00
2:51 AM,36.0,28.9,76,30.24,10.0,NW,8.1,-,0.00,,Overcast,310,2011-12-26 07:51:00
3:13 AM,35.6,28.4,75,30.22,10.0,West,5.8,-,N/A,,Overcast,270,2011-12-26 08:13:00
3:51 AM,35.1,28.0,76,30.25,10.0,WNW,4.6,-,N/A,,Overcast,300,2011-12-26 08:51:00
4:51 AM,35.1,27.0,72,30.25,10.0,WNW,5.8,-,N/A,,Overcast,300,2011-12-26 09:51:00
4:58 AM,35.6,26.6,70,30.23,10.0,West,5.8,-,N/A,,Overcast,280,2011-12-26 09:58:00
5:09 AM,35.6,26.6,70,30.23,10.0,WNW,4.6,-,N/A,,Overcast,300,2011-12-26 10:09:00
5:51 AM,34.0,27.0,75,30.28,10.0,West,4.6,-,N/A,,Overcast,270,2011-12-26 10:51:00
6:51 AM,34.0,27.0,75,30.31,10.0,WSW,4.6,-,N/A,,Overcast,250,2011-12-26 11:51:00
7:51 AM,35.1,27.0,72,30.34,10.0,WSW,11.5,-,N/A,,Overcast,240,2011-12-26 12:51:00
8:51 AM,35.1,27.0,72,30.35,10.0,West,10.4,-,N/A,,Overcast,270,2011-12-26 13:51:00
9:51 AM,36.0,26.1,67,30.36,10.0,West,8.1,-,N/A,,Overcast,260,2011-12-26 14:51:00
10:51 AM,37.0,25.0,62,30.37,10.0,WSW,10.4,-,N/A,,Overcast,240,2011-12-26 15:51:00
11:51 AM,39.0,26.1,60,30.32,10.0,West,6.9,-,N/A,,Mostly Cloudy,260,2011-12-26 16:51:00
12:51 PM,39.9,25.0,55,30.28,10.0,WSW,6.9,-,N/A,,Partly Cloudy,250,2011-12-26 17:51:00
1:51 PM,42.1,26.1,53,30.26,10.0,SSW,9.2,-,N/A,,Partly Cloudy,210,2011-12-26 18:51:00
2:51 PM,42.1,26.1,53,30.24,10.0,SSW,6.9,16.1,N/A,,Partly Cloudy,210,2011-12-26 19:51:00
3:51 PM,41.0,25.0,53,30.25,10.0,South,9.2,-,N/A,,Mostly Cloudy,190,2011-12-26 20:51:00
4:51 PM,39.9,25.0,55,30.22,10.0,South,8.1,-,N/A,,Mostly Cloudy,170,2011-12-26 21:51:00
5:51 PM,37.0,25.0,62,30.19,10.0,SSE,6.9,-,N/A,,Mostly Cloudy,150,2011-12-26 22:51:00
6:51 PM,36.0,25.0,64,30.17,10.0,South,8.1,-,N/A,,Mostly Cloudy,170,2011-12-26 23:51:00
7:51 PM,36.0,25.0,64,30.17,10.0,South,6.9,-,N/A,,Mostly Cloudy,180,2011-12-27 00:51:00
8:51 PM,35.1,25.0,67,30.14,10.0,SSE,5.8,-,N/A,,Mostly Cloudy,160,2011-12-27 01:51:00
9:51 PM,35.1,25.0,67,30.09,10.0,SSE,5.8,-,N/A,,Mostly Cloudy,160,2011-12-27 02:51:00
10:51 PM,35.1,25.0,67,30.06,10.0,SSE,8.1,-,N/A,,Overcast,160,2011-12-27 03:51:00
11:51 PM,36.0,25.0,64,30.02,10.0,SSE,9.2,-,N/A,,Overcast,160,2011-12-27 04:51:00